GFSSW_sfc_wetblb_000.txt.gz
Wetbulb
54.73 54.76 54.58 54.55 54.34 54.20 54.03 54.19 54.48 54.11 54.27 54.51 54.84 55.31 55.57 55.62 56.45 58.06 52.37 55.82 57.15 59.26 58.40 54.76 54.14 52.78 52.99 50.50 50.18 49.38 45.85 42.72 42.83 43.08 44.19 48.18 47.05 52.02 53.64 52.41 52.88 53.82 55.80 58.27 60.12
54.44 54.56 54.39 54.26 54.03 54.03 54.24 54.44 54.11 53.81 53.77 54.36 54.63 54.94 55.16 55.84 58.16 54.63 58.07 58.46 58.38 58.54 54.48 53.49 52.38 52.71 50.93 49.98 50.32 49.98 45.25 43.94 47.27 47.49 46.30 47.35 48.10 49.17 50.23 51.24 52.47 54.30 55.56 57.89 60.08
53.97 53.97 54.28 54.29 54.08 53.89 54.10 53.96 53.48 53.48 54.01 54.46 54.75 55.12 55.05 56.61 53.80 53.51 59.28 57.87 58.50 58.01 55.48 54.70 53.63 52.71 49.87 51.32 50.44 49.60 45.66 46.85 48.76 49.85 50.29 47.73 47.86 50.29 49.04 48.02 51.75 53.18 54.88 56.04 57.17
54.31 54.23 54.42 54.67 54.42 54.28 54.37 54.26 54.05 53.91 54.48 55.30 55.04 55.01 56.04 58.47 45.28 56.20 60.81 59.14 58.56 57.36 55.03 54.73 53.47 51.06 49.64 48.03 50.49 47.24 49.56 49.76 50.27 49.48 48.66 47.75 49.60 48.27 49.18 50.12 53.16 55.78 56.11 55.31 54.88
54.77 54.85 54.95 55.09 55.02 54.99 55.21 54.83 54.56 54.60 55.17 55.24 55.15 56.17 58.62 53.86 52.76 58.93 59.92 60.51 56.86 55.01 53.76 53.09 51.61 51.33 48.20 49.15 50.30 48.55 49.29 50.97 50.77 49.68 49.73 49.16 48.35 48.13 49.06 51.10 52.22 52.77 52.26 52.59 52.67
54.74 54.72 54.70 54.70 55.09 55.15 55.13 54.79 54.42 54.30 55.15 55.12 55.87 56.10 57.34 50.19 59.07 59.43 57.05 56.71 57.12 55.87 54.59 54.31 52.34 53.93 51.30 50.07 49.37 51.02 50.91 50.93 51.55 50.66 50.38 49.24 49.56 49.22 50.20 51.69 51.00 50.71 51.49 52.32 51.69
54.89 54.72 54.56 54.62 54.62 54.58 54.89 54.89 54.36 54.15 54.93 54.94 56.05 58.68 55.38 52.86 58.70 59.39 58.12 56.98 57.33 55.93 53.99 53.43 53.94 52.54 51.82 50.63 52.19 50.55 47.66 49.68 49.55 50.10 49.51 50.31 47.93 47.59 50.65 51.42 50.61 50.47 51.20 51.51 51.51
54.46 54.54 54.16 54.12 54.18 54.28 54.46 54.38 54.22 54.26 55.17 55.10 56.05 59.41 52.34 58.38 59.74 57.77 59.14 57.71 58.01 57.22 55.70 55.67 56.08 54.23 53.01 52.95 49.99 47.56 47.73 43.89 47.65 48.56 49.08 48.40 42.83 48.40 51.46 50.60 50.20 51.31 51.58 51.00 51.26
54.30 54.26 53.99 53.79 53.55 53.85 53.89 53.97 53.93 54.54 55.56 55.87 59.89 57.00 51.18 59.87 55.82 57.10 57.77 55.64 56.52 57.16 57.05 55.05 55.13 51.41 51.40 48.46 46.05 45.68 41.53 41.79 43.51 47.88 46.87 45.95 43.95 47.57 50.95 49.84 49.02 50.36 51.81 51.59 51.43
54.17 54.14 54.02 53.61 53.46 53.20 53.47 54.40 54.66 55.90 57.59 57.52 56.83 53.61 54.27 51.76 54.77 55.25 57.78 56.93 54.74 55.68 54.17 53.22 52.35 49.06 48.21 46.19 39.68 40.50 40.92 42.25 42.11 45.30 45.73 44.84 44.96 47.94 49.32 49.02 49.18 50.02 50.89 51.79 51.59
53.85 54.01 53.93 53.56 53.83 53.26 56.26 60.61 56.70 54.39 56.25 51.80 51.67 51.39 51.87 54.87 55.90 54.59 55.57 56.02 54.75 53.25 48.70 50.28 47.83 43.92 44.88 45.50 44.45 43.59 42.45 42.28 44.17 45.29 43.82 44.61 45.16 47.27 49.34 48.84 48.95 49.37 50.11 50.82 51.75
53.22 53.53 53.39 53.21 53.50 53.34 61.04 57.59 55.12 57.18 50.40 54.40 52.71 52.47 53.08 53.81 50.32 52.95 56.47 52.37 50.56 46.63 49.30 48.41 44.44 46.03 46.08 45.43 44.27 43.92 42.91 42.97 44.09 45.35 44.07 44.36 44.04 47.55 47.23 47.04 47.85 48.46 49.25 49.76 50.71
52.82 53.25 53.02 52.21 53.71 58.66 59.49 56.99 59.29 59.05 50.64 50.83 52.41 51.50 51.29 52.69 49.03 49.92 52.31 51.40 47.91 45.51 45.44 44.61 45.24 46.15 45.24 44.54 43.34 44.38 42.34 42.05 41.33 44.38 46.19 43.44 44.76 45.36 46.77 47.70 47.63 48.70 49.36 49.38 48.88
52.70 52.76 52.20 51.54 55.99 58.48 56.33 57.51 60.13 59.28 47.65 45.43 48.60 50.97 51.41 50.99 47.41 51.59 51.47 49.94 47.91 44.41 45.25 44.96 46.88 44.62 44.63 43.05 43.66 41.11 43.49 42.75 42.14 40.93 39.08 42.98 38.25 44.11 45.22 46.36 47.38 48.37 49.19 49.68 49.58
52.46 52.62 51.84 54.81 57.92 56.68 55.58 58.41 60.52 59.43 38.30 46.92 48.15 54.21 51.82 48.52 48.82 49.83 51.26 50.26 45.26 44.48 45.47 43.31 43.83 43.22 42.92 42.58 43.50 41.68 44.61 43.13 41.60 39.96 39.78 39.93 38.23 43.67 45.44 44.13 45.71 47.81 48.32 49.42 49.69
52.34 52.44 51.92 55.79 58.91 55.38 58.01 60.32 59.71 48.84 35.60 44.10 47.49 46.70 47.02 47.98 47.95 49.88 48.81 49.92 47.38 44.41 44.72 44.03 46.47 45.57 44.26 45.25 43.62 44.62 44.08 44.30 41.23 40.41 35.15 38.84 38.75 42.26 44.62 43.86 45.92 47.54 48.83 49.27 49.78
52.03 52.05 55.96 57.29 56.06 58.57 60.70 59.64 47.68 41.31 44.87 42.17 43.38 46.03 45.36 44.28 45.30 45.94 44.50 44.05 42.47 39.91 40.42 42.81 43.25 45.52 45.62 43.77 44.27 45.33 42.95 38.25 36.28 36.63 35.61 39.53 37.67 42.32 45.95 46.29 46.53 46.88 47.85 49.13 50.01
51.80 52.82 53.94 57.30 59.54 59.35 59.36 53.74 39.27 40.19 42.13 45.00 44.62 45.01 42.89 44.39 44.07 44.17 43.00 42.49 44.71 43.05 41.53 38.81 38.42 42.24 44.88 43.05 41.42 40.58 40.74 36.37 29.25 31.94 35.44 41.18 35.50 42.87 46.68 47.50 48.24 47.47 48.10 48.92 49.84
51.83 60.63 58.67 57.47 58.90 59.42 55.57 46.19 41.64 42.70 44.03 43.03 44.06 42.19 42.21 43.27 43.17 43.11 42.53 41.83 43.08 44.81 39.97 39.01 39.46 45.05 43.46 44.82 44.03 40.88 40.64 41.35 35.32 31.43 30.90 38.09 41.49 45.27 47.64 46.66 46.81 48.02 48.79 49.30 49.99
61.02 59.19 56.25 57.47 59.18 56.61 52.93 40.73 42.81 44.69 45.12 44.91 40.16 42.25 39.70 41.13 41.24 42.06 41.37 43.28 42.43 44.17 45.31 41.70 37.35 42.74 43.72 44.53 44.16 42.40 43.37 37.28 38.32 30.70 28.48 36.59 38.36 40.14 44.15 45.47 47.00 47.64 48.48 48.77 49.97
60.71 54.84 57.12 58.29 57.21 54.10 45.82 43.07 44.02 45.88 46.20 44.18 42.38 41.12 41.28 40.36 41.43 41.02 40.94 43.11 44.38 43.97 45.57 43.77 40.09 41.37 44.65 43.19 42.05 42.30 40.86 39.11 38.84 37.02 31.86 30.70 36.17 46.23 45.15 46.85 46.83 47.65 48.04 49.00 50.26
57.95 51.07 57.05 57.34 51.93 49.39 45.95 45.08 43.22 45.34 47.43 46.15 45.93 44.07 42.45 42.29 41.30 41.13 40.58 43.60 45.48 45.49 42.38 44.04 41.59 36.42 40.14 45.62 43.71 43.61 41.25 40.21 35.61 34.33 36.64 32.74 33.81 47.31 48.25 48.11 46.80 47.47 49.02 50.11 50.56
54.31 53.54 57.66 56.82 46.65 46.69 46.41 45.13 46.35 45.33 45.17 44.85 43.93 45.05 45.27 42.97 40.11 41.94 43.02 46.07 46.04 45.14 44.25 44.77 39.57 34.43 38.44 40.29 41.69 40.25 41.17 41.26 40.85 37.44 33.46 31.05 35.60 48.05 47.89 48.27 49.39 48.75 49.27 49.53 49.37
53.89 46.69 53.29 53.20 50.90 48.31 45.63 44.77 44.42 47.42 46.03 46.01 44.91 46.16 44.90 43.18 44.63 41.97 42.71 45.38 46.72 46.86 45.19 45.50 41.99 38.19 34.73 38.81 42.67 39.06 41.27 42.29 39.47 33.46 35.04 36.25 39.17 44.17 45.94 46.85 48.39 48.70 49.02 49.02 48.40
51.74 47.60 46.75 47.18 47.09 47.89 47.37 45.69 44.09 43.48 46.91 46.54 44.81 44.53 43.19 39.56 40.09 40.72 43.33 44.76 46.38 45.46 45.77 45.31 37.58 40.50 40.90 41.67 40.04 39.41 38.94 39.85 38.03 38.63 33.28 37.33 39.28 43.24 45.65 46.70 47.47 48.13 47.67 46.47 45.51
51.94 50.62 49.11 47.03 45.34 45.74 43.42 44.23 43.77 44.14 44.42 43.37 43.51 44.30 44.47 41.56 42.42 41.12 43.35 43.95 42.85 45.56 44.21 43.93 37.54 37.45 35.30 39.91 39.72 37.38 39.39 39.51 39.79 39.87 39.93 40.41 40.40 47.09 48.18 48.43 46.95 46.18 46.19 43.85 44.62
51.48 49.90 53.05 40.15 43.89 44.82 45.11 45.07 44.27 45.83 45.57 47.10 46.39 45.36 43.14 45.35 47.70 48.38 48.55 47.73 46.86 44.33 42.86 40.95 38.16 35.60 32.14 37.72 35.44 32.03 36.38 39.12 41.10 42.73 41.19 37.14 42.50 46.36 45.32 44.97 44.01 43.44 43.87 43.87 45.30

GFSSW_sfc_wetblb_003.txt.gz
Wetbulb
55.04 55.01 54.78 54.76 54.68 54.54 54.48 54.61 54.77 54.72 54.82 55.19 55.55 55.84 56.12 56.47 56.59 60.11 53.90 56.38 57.87 59.88 57.67 58.19 55.71 53.96 54.27 51.49 52.22 52.89 47.04 43.95 44.00 44.58 45.39 48.89 48.05 51.64 53.05 51.30 52.07 54.19 55.67 61.58 65.33
55.14 55.08 55.03 54.87 54.44 54.51 54.61 54.93 54.83 54.49 54.41 55.00 55.59 55.67 55.91 56.02 60.75 55.01 58.20 59.48 59.22 59.50 57.36 54.60 52.16 53.06 51.97 50.24 52.08 50.07 47.29 45.18 47.91 47.67 47.39 48.09 48.40 49.28 50.03 50.76 51.96 53.82 58.45 62.24 63.80
54.83 54.14 54.59 54.62 54.66 54.67 54.84 54.56 54.41 54.16 54.55 55.10 55.77 55.81 56.00 57.42 56.35 54.62 60.90 60.80 59.76 58.09 58.36 56.61 55.35 52.36 49.92 51.52 51.06 50.76 46.49 47.42 48.43 50.07 50.15 49.11 48.45 50.45 49.44 48.44 50.66 52.10 55.70 59.88 61.48
55.16 55.18 55.10 55.40 55.34 55.12 55.00 54.77 54.68 54.89 55.08 55.76 56.42 56.09 56.42 61.01 47.53 57.37 62.27 61.67 61.16 59.23 57.54 54.98 53.91 51.42 50.25 48.65 51.07 48.07 49.54 50.01 50.82 50.98 50.10 49.38 51.47 49.86 50.36 50.98 53.68 54.74 56.65 58.55 58.71
54.85 55.01 55.22 55.49 55.67 55.58 55.52 55.41 55.15 55.07 55.25 55.95 56.28 56.61 58.89 55.48 53.92 60.12 61.70 62.94 59.16 57.56 55.02 53.59 52.14 51.79 49.12 50.02 50.93 49.71 49.98 51.40 51.59 51.46 51.57 51.88 50.66 50.39 50.92 52.69 54.02 55.53 56.27 56.62 57.04
54.95 54.85 55.05 55.23 55.36 55.60 55.82 55.69 55.21 55.05 55.09 55.95 56.12 56.40 60.36 50.90 59.52 60.77 60.28 59.73 58.98 58.00 56.41 55.95 53.89 54.87 51.89 51.01 50.92 51.28 51.41 51.82 52.38 51.91 51.68 50.20 50.02 50.76 51.92 53.80 53.52 53.83 54.21 55.21 54.83
55.07 54.97 54.66 54.85 55.07 55.28 55.38 55.57 55.35 55.23 55.29 56.15 56.58 60.19 56.66 53.60 59.98 60.99 60.24 59.41 59.66 58.37 55.51 55.90 56.38 54.83 53.91 51.70 53.85 52.00 50.00 50.81 51.11 50.69 50.31 51.38 47.97 48.88 51.79 53.09 51.92 52.91 53.67 54.40 54.61
54.74 54.94 54.45 54.45 54.48 54.91 55.03 54.97 54.92 55.23 55.53 56.33 56.74 62.60 53.61 59.48 61.54 59.59 60.44 59.06 59.62 59.23 57.67 57.52 57.34 54.94 54.81 54.34 51.89 49.13 49.72 44.86 48.70 49.24 49.99 49.01 43.94 49.28 52.08 51.72 51.11 52.00 52.85 53.24 54.34
54.72 54.52 54.31 54.11 54.03 54.71 54.59 54.67 54.81 55.34 56.12 56.88 61.40 58.99 52.47 59.57 57.03 59.22 59.86 56.98 57.90 58.42 58.27 57.05 55.36 52.85 53.60 50.27 48.31 47.66 43.37 44.01 45.64 49.08 48.27 47.30 45.34 49.31 51.42 51.24 50.77 51.44 51.73 53.07 53.89
54.45 54.52 54.33 54.05 54.29 54.13 54.25 54.89 55.60 55.89 58.95 61.36 58.55 55.12 55.15 53.07 56.58 57.92 59.96 58.77 56.02 56.53 55.77 53.91 53.25 51.33 50.28 47.75 41.26 42.72 43.77 45.37 45.23 47.72 47.92 46.84 47.09 49.93 51.68 51.19 50.65 51.24 51.94 52.05 52.70
54.13 54.15 54.11 53.90 54.33 54.01 56.85 61.96 58.09 55.92 57.53 53.53 53.12 52.28 52.98 56.00 57.89 56.09 58.30 57.03 56.06 54.46 49.72 51.74 50.31 45.79 47.01 47.88 47.03 46.16 45.67 45.40 47.50 48.08 46.65 47.08 47.46 49.23 50.88 50.28 49.77 50.53 51.14 51.84 52.43
53.68 53.76 53.64 53.45 54.36 54.20 61.32 58.81 58.24 59.65 51.42 54.75 54.02 53.43 54.51 55.35 51.68 53.74 56.92 53.18 51.65 48.24 50.01 50.32 46.74 48.07 48.75 48.05 47.28 47.28 45.98 45.72 47.57 49.08 48.00 47.47 47.17 49.64 49.17 49.16 49.38 49.88 50.60 51.58 52.22
53.26 53.50 53.12 52.65 54.09 61.17 62.12 59.42 62.80 63.02 53.05 51.16 53.50 52.34 52.67 54.22 50.17 51.20 53.77 52.09 48.99 46.97 46.88 45.88 47.60 48.66 47.42 46.89 45.48 46.80 45.13 44.50 44.23 47.51 49.27 47.09 46.39 47.58 48.55 50.50 49.95 50.85 51.52 51.40 50.92
52.96 53.15 52.38 52.52 56.47 63.35 59.76 61.38 63.79 63.43 49.92 46.96 49.85 52.36 52.77 52.65 49.44 53.94 53.57 51.35 49.85 46.36 46.71 47.28 48.61 46.38 46.49 45.05 46.00 43.91 47.16 45.95 45.15 44.38 41.51 47.31 39.93 45.93 47.43 47.81 48.73 49.89 51.02 51.40 51.81
52.95 53.01 52.49 55.04 61.71 60.09 59.49 62.01 64.37 63.48 41.52 48.36 49.69 55.51 53.28 49.87 50.58 51.31 53.77 52.12 47.33 46.65 47.31 45.74 45.09 44.71 45.08 44.47 46.56 44.71 47.70 46.39 46.36 44.12 43.94 43.66 41.10 45.67 47.29 45.66 47.37 49.39 50.26 51.55 52.31
52.91 53.29 53.54 58.65 62.41 59.64 61.95 63.53 63.12 50.58 38.58 46.09 49.51 48.51 48.81 49.72 49.44 51.11 50.87 52.23 50.19 46.60 47.05 45.60 48.20 47.72 46.18 47.90 47.24 47.89 48.00 48.48 47.08 44.44 39.00 43.82 41.43 42.98 46.06 45.80 47.22 49.19 50.45 50.92 51.95
52.53 52.67 58.97 62.29 59.35 62.77 64.42 61.99 49.26 43.53 48.13 44.84 46.05 47.89 47.42 46.67 47.46 47.77 47.30 47.51 45.79 43.50 43.52 46.10 45.75 47.53 48.04 46.57 48.68 48.49 45.36 40.17 38.33 39.30 38.07 43.61 40.77 43.86 47.76 48.27 48.10 48.09 49.45 50.84 52.07
52.42 53.90 57.36 61.51 63.37 63.92 62.40 53.10 43.11 44.66 45.51 47.81 47.20 46.71 45.34 46.98 46.84 46.55 46.02 46.17 48.07 47.33 45.07 42.07 40.54 44.96 47.94 45.74 43.85 45.08 43.96 38.87 30.81 34.36 37.31 43.81 38.87 43.90 48.78 49.29 49.35 49.53 50.04 50.84 51.89
51.75 64.34 61.58 62.07 63.34 63.45 57.19 47.23 44.68 45.95 47.04 45.99 46.25 44.35 44.85 45.83 45.54 46.08 45.48 44.77 46.03 47.49 42.76 41.81 42.16 48.52 46.39 47.44 47.33 44.63 42.82 45.40 38.64 39.52 34.72 39.76 44.60 48.13 50.11 48.44 48.78 49.44 50.56 51.18 51.54
62.78 62.36 58.89 62.65 63.62 61.17 54.81 43.85 46.15 47.43 47.76 47.08 43.02 44.56 42.48 43.96 43.83 44.98 44.31 46.03 45.16 47.51 49.14 45.17 39.45 46.39 46.85 48.67 47.86 46.18 47.43 39.96 41.06 32.36 31.16 38.82 40.34 41.99 46.31 47.92 49.06 49.38 49.56 50.24 51.84
63.03 57.34 59.83 63.11 61.43 56.96 49.84 46.48 46.44 48.46 48.91 46.82 44.87 43.69 44.01 43.34 44.57 44.07 43.77 45.85 47.18 47.21 48.73 47.43 42.97 43.63 47.29 45.63 44.71 44.98 43.97 42.97 42.68 40.27 33.61 32.43 37.98 48.21 47.50 49.05 49.19 49.74 50.11 51.17 51.27
60.83 53.93 60.50 62.52 55.05 54.61 49.71 47.90 44.20 48.08 49.76 48.30 48.36 46.59 45.04 45.27 44.56 44.03 43.29 45.89 48.53 48.59 44.94 47.24 43.62 38.78 42.60 48.55 47.43 46.06 44.84 44.72 38.11 36.47 39.47 38.18 37.08 49.66 49.98 49.85 49.50 49.95 50.56 51.17 51.24
56.65 55.76 61.85 61.40 49.34 49.95 49.06 47.81 48.84 47.76 47.83 47.57 46.60 48.07 48.06 45.73 42.62 44.70 45.47 48.31 49.17 47.65 46.64 47.46 42.25 36.67 40.80 44.45 45.83 44.95 46.37 45.86 44.28 42.02 35.90 32.56 36.84 49.76 50.39 49.95 50.52 50.01 50.43 51.01 51.22
56.79 51.05 56.06 57.43 55.88 51.12 48.66 47.57 46.45 49.60 48.22 48.94 47.74 48.93 47.21 45.69 47.40 44.27 45.19 47.80 48.87 48.92 46.14 46.80 43.51 39.96 36.03 40.34 44.29 41.30 43.52 45.02 43.68 36.96 38.16 39.02 41.34 45.17 47.49 48.04 48.86 49.73 50.33 50.50 50.30
55.73 51.34 50.98 50.29 51.10 51.27 50.60 48.68 46.65 45.78 49.46 49.63 47.38 46.92 45.72 41.72 42.67 43.07 45.81 47.53 48.87 47.05 47.38 47.24 39.83 42.70 43.11 43.94 43.48 42.67 42.17 42.75 41.39 42.26 37.22 40.39 41.57 45.07 47.08 47.81 48.71 48.87 49.41 48.42 48.72
54.43 53.78 54.24 51.07 49.41 49.57 45.96 47.11 45.73 46.38 46.88 46.04 45.91 47.02 47.40 44.33 45.11 43.57 46.16 46.42 45.45 48.08 46.62 46.58 38.75 39.91 37.08 41.50 42.08 39.63 42.06 42.34 42.33 42.69 42.73 42.82 42.25 48.15 48.97 48.84 47.81 47.22 47.29 47.25 47.62
57.09 55.71 56.79 46.13 47.93 47.92 47.74 46.86 46.30 47.81 48.55 49.04 48.61 47.50 45.60 47.85 50.36 50.34 50.57 50.10 49.06 46.80 45.79 43.29 39.02 36.73 32.22 39.97 36.99 33.24 38.29 41.73 43.15 44.77 43.86 39.52 44.53 46.98 45.48 45.15 45.72 47.10 47.57 46.81 47.44

GFSSW_sfc_wetblb_006.txt.gz
Wetbulb
55.14 55.31 55.25 55.37 55.41 55.13 55.20 55.22 55.41 55.47 55.65 55.75 56.05 56.48 56.92 57.19 56.06 59.21 53.39 56.46 57.90 60.26 58.94 56.65 57.26 54.06 54.27 51.16 52.32 52.48 45.85 42.90 43.62 44.44 45.01 48.47 47.20 51.21 52.23 50.47 51.66 52.60 55.55 62.47 65.21
55.47 55.56 55.53 55.49 55.19 54.96 55.07 55.31 55.52 55.16 55.16 55.38 56.05 56.49 56.79 56.63 59.10 53.81 59.29 60.58 60.12 60.12 57.76 54.69 52.40 53.14 51.12 50.47 51.31 49.62 45.99 44.53 47.39 47.47 46.94 48.20 47.55 48.84 48.50 49.32 50.27 52.57 56.07 60.97 63.48
55.24 55.26 55.05 54.88 55.21 55.26 55.26 55.20 55.30 55.36 55.26 55.74 56.27 57.23 56.72 56.38 57.00 53.63 60.20 61.77 61.11 58.85 58.29 57.32 55.77 52.89 50.42 51.44 50.88 49.75 44.97 47.64 48.46 49.26 48.88 48.33 48.29 50.52 48.22 47.36 51.25 50.81 54.36 57.18 59.34
55.44 55.50 55.14 55.64 55.93 55.99 55.79 55.65 55.41 55.36 55.90 56.13 56.71 57.12 57.18 59.71 47.27 56.34 62.25 62.45 63.00 59.81 57.63 55.79 54.17 51.78 49.95 48.76 51.43 47.62 49.32 49.85 50.23 50.65 49.91 49.51 51.03 49.70 50.22 50.06 53.23 53.72 55.35 56.56 57.19
55.19 55.25 55.50 55.81 56.14 56.17 56.24 56.07 56.11 55.84 55.88 56.03 56.72 57.14 59.59 55.52 53.66 59.89 62.38 64.29 60.00 58.38 55.69 53.94 52.78 52.59 49.01 50.06 51.08 49.29 49.88 51.19 51.73 51.77 51.13 51.41 49.62 50.05 49.80 52.40 53.83 54.02 55.65 55.72 56.55
55.19 55.23 55.07 55.42 55.74 56.13 56.30 56.41 56.15 55.99 55.94 56.07 56.91 56.57 58.81 50.39 59.39 60.48 60.11 59.77 59.06 58.11 55.96 55.69 53.73 54.27 52.14 51.31 50.46 51.35 51.11 50.95 51.62 51.25 51.08 49.73 49.21 49.69 50.46 53.12 52.60 52.98 53.84 54.85 55.69
55.45 55.30 55.08 55.29 55.42 55.74 56.17 55.98 55.95 55.91 56.20 56.25 56.99 59.46 56.57 53.25 59.73 60.73 60.10 58.92 59.10 57.84 54.60 55.51 56.46 54.57 54.33 51.73 52.85 51.55 48.92 51.03 51.12 49.85 48.33 50.61 46.60 46.68 51.98 53.12 51.46 51.62 52.92 53.67 54.43
55.25 55.20 54.95 54.83 55.14 55.49 55.64 55.59 55.57 55.85 56.40 56.65 56.78 60.02 53.39 59.52 60.99 59.16 60.03 58.51 59.28 59.16 57.14 56.86 57.25 54.63 54.05 53.50 52.28 49.16 49.67 44.62 48.62 49.17 49.44 48.44 42.56 48.90 51.90 50.84 50.11 50.97 51.91 52.72 53.56
55.01 55.04 54.77 54.51 54.65 55.26 55.40 55.35 55.37 56.04 56.55 56.98 60.18 59.83 52.41 60.58 56.90 58.90 59.32 56.79 57.96 58.66 58.72 57.46 56.13 52.97 53.28 50.01 47.67 47.90 42.85 44.43 46.54 50.07 48.28 47.34 44.47 48.89 51.83 50.58 50.00 51.08 51.52 52.11 53.04
54.83 54.95 54.63 54.55 54.89 55.50 55.62 55.10 56.27 56.77 58.58 60.85 61.02 54.54 55.12 53.10 56.28 57.68 59.46 58.46 56.47 56.36 55.79 54.52 53.37 50.59 49.67 46.76 39.79 42.52 43.28 45.33 45.38 48.36 48.42 46.99 46.56 49.68 51.47 50.94 50.84 51.33 51.67 51.73 51.93
54.53 54.71 54.41 54.19 55.01 54.64 57.34 60.83 56.88 56.58 57.08 53.22 52.95 52.49 53.20 55.96 58.00 55.12 56.34 56.49 56.40 54.33 49.30 51.51 49.00 44.78 46.22 47.60 47.26 46.16 45.36 44.76 47.07 48.92 47.49 46.61 47.06 48.81 50.33 49.92 50.10 50.41 51.44 51.72 52.66
54.12 54.12 54.02 53.98 55.14 55.77 60.11 59.34 58.51 60.33 50.95 54.24 53.80 53.25 54.21 55.47 51.84 53.66 55.88 52.53 51.53 48.10 49.87 48.71 46.64 47.84 48.39 48.47 46.72 45.65 44.86 44.72 46.74 48.67 47.86 47.01 46.78 49.12 49.18 49.22 49.81 49.99 50.97 51.48 52.35
53.80 53.90 53.79 53.34 54.87 60.36 61.94 59.56 63.43 63.58 54.56 51.07 53.30 52.22 52.47 54.52 50.30 50.75 52.92 51.73 49.31 47.37 46.98 45.27 47.56 48.49 47.47 46.88 44.99 44.83 44.72 43.88 43.52 47.04 48.95 47.21 45.47 47.34 48.56 49.44 49.63 50.83 51.47 51.62 51.26
53.70 53.67 53.24 53.03 56.27 62.66 59.75 62.71 65.26 65.22 50.28 47.96 50.53 52.57 53.31 52.71 49.91 54.19 53.49 51.19 50.53 46.45 46.41 47.24 48.70 46.61 46.40 45.58 45.54 41.90 47.39 46.00 45.22 44.18 39.89 47.22 38.29 45.09 47.19 46.82 48.51 49.87 51.65 51.68 52.01
53.35 53.87 53.71 53.41 63.56 59.19 60.44 63.34 65.08 64.31 41.57 48.96 50.05 55.58 53.58 50.26 50.55 51.33 54.55 52.27 47.68 47.09 47.10 46.17 46.12 44.34 44.85 45.14 46.74 44.11 47.63 46.39 46.76 45.12 43.92 44.30 40.36 44.26 47.17 45.60 47.23 49.79 50.70 51.69 52.36
53.23 53.59 55.25 60.36 64.62 61.29 63.01 64.89 63.68 50.65 39.73 46.64 50.10 49.06 49.51 50.33 49.89 51.50 51.60 53.09 51.07 47.22 47.37 46.09 48.73 47.45 46.24 47.64 48.64 48.98 47.56 47.53 48.27 44.80 38.91 44.11 42.14 41.89 44.72 46.23 47.33 49.27 50.65 51.39 51.63
52.88 53.65 59.67 63.27 60.03 63.50 65.10 62.32 49.69 43.19 48.88 45.79 46.94 48.48 47.76 47.27 48.06 48.36 47.76 47.73 45.61 43.05 44.02 47.12 46.41 48.14 48.44 45.95 49.22 47.78 44.15 38.72 37.45 39.01 37.16 44.32 41.03 43.20 48.17 49.20 48.80 48.60 49.57 51.02 52.17
52.89 52.50 59.47 62.87 64.09 65.35 63.03 53.66 42.96 45.05 46.18 49.08 47.76 47.35 45.81 47.10 47.70 47.41 47.42 46.01 48.20 46.70 44.30 41.99 40.73 45.54 48.52 45.97 43.76 44.74 43.69 38.94 30.39 32.43 34.91 42.37 37.89 42.97 49.41 50.11 50.03 50.17 51.17 51.17 52.19
51.94 64.53 62.76 63.73 65.05 64.72 57.52 47.07 44.73 46.80 47.92 47.01 47.08 44.78 46.13 46.73 45.55 46.75 46.16 45.10 46.21 47.02 41.61 41.49 41.97 48.86 48.09 47.93 47.05 44.34 41.97 45.90 38.67 38.35 35.13 38.50 43.41 48.15 50.25 49.32 49.66 50.20 50.63 50.84 51.52
62.18 61.80 59.11 64.18 64.94 62.11 55.31 44.23 47.01 48.50 48.87 47.96 43.81 45.32 43.36 44.87 44.67 45.82 45.42 46.89 46.02 48.00 49.24 45.83 38.75 47.33 47.92 49.73 49.33 45.95 48.06 39.16 40.76 31.61 29.60 36.64 38.17 40.00 46.39 47.66 49.23 49.69 50.34 50.98 52.20
63.02 57.73 60.78 63.51 63.21 57.24 49.21 46.85 46.97 49.06 49.92 47.60 45.94 44.65 44.66 43.98 45.56 44.65 44.69 46.79 48.06 47.72 49.19 47.81 43.80 43.26 46.88 45.95 43.91 44.22 42.58 44.00 43.15 40.10 32.83 31.00 35.78 46.97 46.09 47.83 48.92 49.39 50.29 50.69 51.41
62.83 53.84 62.02 63.50 54.78 53.86 48.92 48.57 44.47 48.90 50.68 49.30 49.33 47.89 46.19 46.46 45.06 44.83 43.92 46.57 49.47 48.83 45.12 47.56 43.42 38.33 41.63 47.90 48.78 46.15 44.28 44.28 36.23 35.27 37.80 36.02 35.80 48.28 49.44 50.49 49.94 50.28 50.49 51.20 51.40
56.24 55.72 63.05 61.93 49.53 50.06 49.55 48.31 49.87 48.57 48.72 48.54 47.54 48.75 49.01 46.41 43.05 45.86 46.39 49.39 49.74 47.95 45.38 46.45 42.47 35.55 39.05 44.62 46.57 44.22 45.00 45.22 44.36 39.75 35.63 32.07 35.43 49.00 49.84 49.71 50.58 49.56 49.68 49.89 50.29
56.32 48.38 56.25 57.47 55.80 51.15 48.62 47.95 46.63 50.54 49.01 49.70 48.54 49.46 47.72 46.13 47.94 44.70 45.59 48.77 49.67 48.94 46.67 47.00 42.55 39.23 34.93 38.79 43.22 40.05 42.37 43.71 42.32 35.38 36.27 37.14 39.58 44.64 47.10 47.51 48.84 48.77 48.09 48.58 48.70
55.49 51.96 52.67 51.11 51.14 51.78 50.81 49.08 47.34 46.61 49.90 50.06 47.93 47.50 46.12 41.14 43.09 43.41 46.38 47.31 49.48 47.59 48.67 46.51 39.30 41.54 42.19 42.85 42.22 40.65 40.47 41.42 40.22 40.49 35.62 38.38 40.36 44.05 46.61 46.92 46.75 47.83 48.17 47.91 47.94
53.84 53.05 53.92 51.09 50.90 49.78 46.00 47.35 46.66 47.50 47.34 46.84 45.78 47.90 47.65 45.06 44.68 42.52 45.38 46.01 44.89 48.28 47.32 47.52 38.10 38.50 36.27 41.02 41.24 38.02 40.71 41.62 41.01 41.22 41.32 42.05 41.56 47.40 47.65 47.61 46.72 47.08 47.12 46.75 46.28
57.47 56.38 56.87 47.53 49.43 48.59 48.36 47.43 47.09 48.44 49.55 49.35 48.84 47.90 43.40 47.40 50.22 50.17 50.13 49.22 48.28 46.21 44.80 43.90 39.09 34.19 32.56 37.87 36.27 32.38 37.06 40.35 41.96 43.53 42.70 37.36 42.63 46.59 45.35 45.29 45.43 45.83 46.86 45.17 45.34

GFSSW_sfc_wetblb_009.txt.gz
Wetbulb
55.62 55.31 55.35 55.73 56.21 56.00 55.50 55.55 55.86 55.95 56.12 56.15 56.22 56.72 57.55 57.27 56.73 57.92 49.38 52.50 53.82 59.95 59.77 54.48 53.78 53.12 49.98 45.46 45.21 43.46 37.55 34.23 36.72 38.90 38.31 40.87 41.08 44.67 46.50 45.53 46.82 50.23 55.98 57.69 61.91
55.53 55.87 55.92 55.56 55.32 55.23 55.59 55.79 55.72 55.92 55.81 55.75 56.17 57.03 57.49 56.62 57.36 51.53 57.16 59.91 60.64 61.46 54.62 53.40 51.73 51.00 44.82 44.18 46.26 42.90 35.92 37.51 42.43 42.55 39.42 42.33 42.46 43.59 43.64 43.30 44.85 49.61 58.60 61.48 62.10
55.51 55.28 55.35 55.33 55.35 55.80 55.79 55.74 55.54 55.91 56.21 56.43 56.75 57.41 56.82 56.04 55.74 50.29 59.63 61.73 61.87 61.27 54.75 54.25 54.03 51.69 45.08 45.03 44.54 41.94 38.78 43.79 45.00 46.85 44.89 44.07 45.86 46.77 42.52 41.49 46.29 46.84 52.00 57.77 58.86
55.67 55.65 55.33 55.38 56.15 56.41 56.33 55.66 55.96 56.15 56.25 56.53 56.84 57.30 56.66 56.60 43.85 52.04 61.16 61.95 62.39 60.08 55.38 53.24 51.60 47.85 44.82 42.85 45.91 42.60 46.55 47.31 45.69 46.81 46.45 44.72 45.67 46.55 42.66 43.75 50.31 49.45 51.99 52.62 53.33
55.58 55.46 55.57 56.03 56.21 56.51 56.26 55.88 55.98 56.48 56.37 56.38 56.90 57.30 56.43 52.68 51.27 56.78 61.66 61.38 59.62 56.65 53.75 52.52 50.28 48.87 45.36 46.23 47.74 45.12 46.24 47.91 48.62 48.55 46.96 48.63 45.95 45.91 45.63 47.88 50.43 51.08 52.68 51.65 52.80
55.56 55.50 55.34 55.42 56.01 56.23 56.22 56.04 55.81 55.96 56.15 56.32 57.29 56.25 55.13 47.64 56.77 57.97 57.92 57.47 56.17 54.45 52.00 51.93 50.80 51.55 49.31 47.65 45.68 48.40 48.17 47.39 47.88 47.52 47.62 46.52 45.94 44.21 46.26 47.13 48.98 50.20 49.92 50.44 50.50
55.51 55.25 55.25 55.40 55.75 55.83 55.93 55.90 55.66 55.80 56.03 56.37 57.10 57.47 55.10 51.47 55.76 55.72 58.09 55.68 55.71 55.26 52.07 52.68 53.08 50.32 50.69 48.69 50.11 48.99 44.35 46.81 47.17 46.42 43.64 43.46 42.02 41.44 47.08 48.40 47.85 48.30 49.33 49.61 50.44
55.35 55.23 54.74 54.76 54.97 55.18 55.51 55.36 55.30 55.76 56.27 56.62 57.25 56.31 50.24 57.99 55.49 56.90 56.34 55.96 56.94 56.56 54.81 53.73 53.62 51.52 50.26 50.62 49.35 45.81 44.00 39.05 46.04 46.32 46.16 43.95 37.72 43.48 45.75 47.41 46.15 46.29 47.27 48.90 49.37
55.15 54.92 54.66 54.40 54.42 54.97 54.73 54.78 55.18 56.10 56.45 56.64 55.11 54.93 48.87 58.54 54.95 56.00 55.82 55.18 56.30 56.53 55.44 56.61 53.04 49.00 49.19 44.27 41.17 42.08 35.99 40.17 43.41 45.75 43.91 42.11 39.72 45.62 47.70 46.25 44.81 45.48 45.87 46.94 47.33
54.64 54.86 54.46 54.25 54.42 55.37 55.29 55.03 56.42 55.82 57.24 58.51 59.07 51.16 53.61 52.12 54.34 55.21 54.16 54.94 54.14 53.88 53.03 52.19 48.31 44.48 42.41 39.18 32.41 36.72 37.79 41.42 38.94 43.17 43.91 41.65 41.40 44.33 46.81 46.00 43.52 43.50 44.40 43.55 44.81
54.50 54.44 54.29 54.08 54.65 54.09 55.85 57.02 51.63 51.30 53.42 48.18 49.13 50.62 51.53 53.80 55.90 52.12 53.33 52.39 52.84 51.17 45.20 46.94 42.28 37.63 39.41 42.52 43.73 41.86 40.17 38.52 41.09 45.57 42.93 40.82 41.15 43.80 43.87 43.56 43.30 43.52 44.29 45.48 46.89
54.11 54.17 54.01 53.89 54.42 54.81 54.84 54.80 54.44 55.89 47.85 53.21 52.24 51.77 54.01 53.26 50.01 50.73 52.94 48.55 48.22 43.81 46.13 43.33 40.12 44.31 45.98 45.49 43.95 41.98 40.41 39.25 42.41 45.61 44.18 41.83 41.86 43.60 44.33 43.79 44.41 44.55 44.60 45.53 46.02
53.77 54.13 53.92 53.27 53.64 56.97 55.25 54.62 60.33 60.18 50.52 50.38 52.54 51.51 51.93 52.72 49.08 48.31 49.69 48.43 46.32 44.47 43.02 40.64 44.10 47.28 45.66 44.19 42.29 40.32 40.24 39.62 39.62 43.49 44.67 41.36 39.61 41.57 43.75 44.91 46.56 46.46 45.96 46.40 46.15
53.50 53.85 53.54 52.88 53.81 57.44 53.83 58.10 61.09 60.00 46.09 45.87 49.53 51.05 52.79 51.99 49.14 51.66 50.96 48.88 48.15 43.85 43.22 43.70 46.68 44.70 43.42 43.49 42.62 37.97 44.37 43.52 42.18 39.34 34.42 41.95 31.63 39.36 41.56 42.54 44.90 45.86 44.58 44.83 45.89
53.30 53.79 53.84 53.27 57.25 54.31 56.29 58.99 59.49 59.15 31.67 49.15 48.69 52.39 51.19 48.50 48.38 49.54 50.92 49.76 43.90 43.74 43.40 42.78 41.81 40.97 42.03 42.29 43.91 41.28 45.12 43.28 42.77 39.44 36.60 39.13 33.76 37.30 41.28 40.62 42.39 43.86 45.14 45.28 46.00
53.04 53.66 53.93 56.97 57.01 55.99 59.41 60.36 58.35 44.36 31.56 45.78 49.64 48.68 48.59 49.10 48.88 49.56 49.77 50.63 49.10 45.72 44.38 42.86 45.46 44.01 42.76 45.35 45.53 46.46 44.25 43.17 43.19 39.07 30.58 38.22 35.97 34.75 39.46 41.22 43.53 44.83 45.31 45.97 45.90
52.69 53.09 56.04 60.19 54.33 58.74 59.95 57.15 43.24 33.62 48.68 44.17 45.78 48.02 46.95 45.68 47.24 46.87 46.37 43.83 40.57 37.29 38.55 44.07 42.91 44.11 46.89 42.58 45.67 43.34 38.85 29.19 28.52 28.51 28.53 40.02 36.41 37.51 43.54 44.63 44.78 44.04 44.05 45.01 45.26
52.31 51.99 58.01 60.29 60.07 59.92 58.57 48.16 36.01 43.45 44.23 48.26 47.11 46.61 44.26 44.86 45.58 45.82 44.52 41.25 44.35 42.68 39.00 37.43 34.60 43.14 46.73 43.36 40.40 40.17 39.22 28.77 24.65 25.82 28.69 38.81 33.05 38.49 45.68 46.28 47.10 46.83 44.60 45.85 46.55
52.14 56.65 56.76 58.51 60.83 59.17 52.80 39.31 36.29 43.78 46.69 45.29 46.34 42.80 43.27 45.68 43.66 44.49 41.99 41.63 43.12 43.59 38.01 37.05 38.83 46.34 46.58 46.20 44.12 40.85 35.95 41.91 33.12 31.08 27.39 33.07 38.48 44.04 45.07 46.98 47.82 47.84 47.56 45.67 46.28
54.54 57.42 54.01 58.87 59.47 57.61 48.19 40.35 43.49 47.62 47.34 47.29 42.25 43.75 40.40 42.55 42.46 42.74 41.98 44.81 44.40 46.03 45.77 42.58 35.66 44.77 46.67 46.76 45.71 42.88 44.42 33.77 31.52 24.94 25.72 31.61 32.76 35.21 41.24 43.69 45.94 45.05 45.43 45.63 46.69
57.07 52.86 55.91 58.49 58.52 52.46 39.81 40.47 45.16 48.22 48.74 45.67 44.09 43.53 43.51 42.42 43.40 42.28 42.26 44.58 46.07 45.71 45.91 44.21 38.94 38.68 43.60 42.72 40.10 39.83 37.62 39.14 40.96 34.22 29.43 27.43 30.85 41.93 43.27 44.64 44.33 46.76 47.79 46.97 46.63
55.26 47.34 56.20 58.30 49.48 47.97 40.99 46.28 45.07 48.09 49.87 48.46 47.56 46.04 43.95 44.51 42.64 42.70 42.75 44.61 47.44 46.03 42.69 43.75 39.00 30.00 38.49 44.82 46.30 42.75 41.67 41.40 32.41 32.43 30.98 30.50 33.17 45.59 44.57 45.43 47.32 46.75 46.42 46.21 46.17
51.76 51.00 57.68 56.64 39.82 38.22 45.43 47.35 48.26 47.94 47.39 47.58 46.31 47.09 46.88 43.69 38.32 43.60 44.51 47.60 47.03 45.82 42.18 42.85 34.60 28.17 33.39 39.51 42.73 40.39 42.00 41.49 39.47 32.05 31.17 25.70 31.37 45.58 45.98 45.65 46.09 43.58 44.40 45.43 46.38
51.22 38.36 50.13 51.64 50.25 45.68 44.51 45.23 45.08 49.14 48.05 48.74 47.51 47.86 45.50 43.21 45.14 41.14 43.24 47.10 47.76 46.94 46.16 44.71 38.97 33.62 29.07 34.19 39.63 36.87 39.22 40.22 37.85 25.94 30.91 32.13 35.45 40.28 42.77 42.32 42.92 43.15 43.74 43.90 44.28
50.11 44.58 46.78 39.34 44.16 46.17 46.67 47.06 45.29 45.01 48.56 48.49 46.19 46.12 43.95 36.56 38.94 40.79 45.04 45.06 46.83 45.69 45.76 43.41 32.90 37.91 39.03 40.44 40.76 39.47 38.80 38.59 36.79 36.39 31.90 35.09 35.96 40.22 41.45 41.94 42.26 44.27 45.07 45.03 44.75
47.51 46.86 48.40 44.12 47.02 45.67 42.90 44.49 45.04 45.89 45.44 45.74 43.79 46.21 45.13 39.97 42.69 38.94 42.76 41.98 41.26 44.46 42.10 43.74 33.08 34.38 34.74 39.42 40.03 36.17 37.45 37.86 37.64 37.60 37.55 37.81 37.25 42.53 43.03 44.21 43.53 43.40 44.37 43.42 43.72
51.66 50.81 49.70 43.09 42.16 39.10 40.44 45.23 45.82 47.04 47.09 47.85 46.09 44.08 37.80 44.79 46.02 46.01 45.92 45.56 44.84 42.42 38.11 37.98 33.15 29.14 32.90 35.58 34.19 26.87 33.44 36.56 38.08 39.18 37.95 31.98 37.43 42.27 41.49 42.58 43.06 42.77 43.11 43.04 43.64

GFSSW_sfc_wetblb_012.txt.gz
Wetbulb
55.78 55.71 55.30 55.57 55.70 56.26 55.82 55.89 56.03 55.94 56.07 56.19 56.39 56.95 57.90 57.68 56.80 56.18 47.38 52.43 53.15 60.75 59.32 53.88 52.40 51.15 48.26 44.59 43.31 40.98 36.00 32.87 33.80 36.73 37.50 40.96 40.55 43.66 45.05 45.16 46.09 52.83 52.95 54.25 57.77
55.80 55.59 56.08 56.08 55.38 55.51 55.93 55.98 56.03 56.01 56.00 56.34 56.60 57.38 57.62 56.85 56.88 50.21 56.47 59.93 60.71 61.15 51.72 51.62 50.28 50.99 44.37 42.63 44.41 39.74 34.06 36.05 40.99 40.31 37.00 40.05 40.82 41.71 41.88 43.96 47.44 53.65 57.65 59.74 61.91
55.90 55.53 55.32 55.39 55.82 55.65 56.26 56.13 55.79 55.86 56.44 56.56 56.98 57.48 56.84 55.87 52.90 49.56 59.83 60.42 61.42 60.56 53.21 52.89 52.35 49.83 44.78 44.04 42.71 42.79 38.61 42.14 43.14 43.56 41.54 41.74 44.03 45.24 41.53 41.22 47.37 52.57 56.27 58.58 58.81
55.66 55.82 55.77 55.25 55.77 56.55 56.33 55.85 55.95 56.16 56.64 56.56 56.73 57.57 56.80 55.47 42.20 51.83 61.36 61.96 62.74 58.50 54.25 52.20 50.24 46.76 43.54 43.19 44.38 41.10 44.13 44.56 43.70 44.34 44.07 42.39 42.46 44.63 44.51 44.14 48.96 56.15 58.27 57.58 57.90
55.54 55.59 55.70 55.85 56.41 56.60 56.23 55.80 56.03 56.27 56.18 56.41 57.33 57.35 54.74 49.94 49.73 56.03 61.45 59.91 55.86 55.23 52.36 50.32 49.10 47.25 44.39 44.65 45.31 42.94 44.10 45.87 47.04 46.81 45.11 46.58 43.80 44.41 43.74 45.64 48.03 51.38 53.10 55.09 54.97
55.26 55.18 55.30 55.59 56.08 56.20 56.03 55.75 55.52 55.56 55.79 56.53 57.46 56.99 53.75 45.26 55.28 56.09 56.39 56.21 54.53 52.79 50.95 50.94 48.71 49.61 47.50 45.95 44.24 46.49 45.87 46.18 46.54 45.90 45.67 44.72 44.02 43.25 45.60 45.74 47.09 50.20 48.96 49.31 50.54
55.14 54.90 54.88 55.29 55.53 55.65 55.92 55.55 55.26 55.22 55.88 56.53 57.27 57.38 54.51 49.48 54.11 53.86 55.25 54.42 54.28 53.82 50.53 50.92 50.83 49.23 48.19 46.96 49.08 47.16 43.26 45.11 46.14 44.35 43.13 42.95 39.40 40.17 43.71 46.01 46.51 47.79 48.62 49.00 49.55
55.14 54.81 54.39 54.39 54.51 54.74 54.94 54.88 54.80 55.45 55.87 56.62 57.04 55.29 47.65 56.36 54.38 54.98 54.69 54.41 55.92 55.44 53.50 52.54 52.23 49.47 48.05 48.88 48.49 44.13 41.58 37.46 44.17 45.31 44.55 41.63 36.93 43.10 43.51 44.93 44.64 45.13 46.68 48.01 48.84
54.79 54.63 54.30 53.98 53.96 54.35 54.18 54.23 54.82 55.71 56.44 56.43 54.58 53.05 48.41 57.46 53.40 54.20 53.77 53.20 54.17 55.02 54.20 55.03 51.87 47.35 47.09 40.92 38.04 39.09 34.50 36.97 41.72 44.56 43.09 40.14 38.69 43.81 44.79 44.95 44.51 43.60 43.96 45.55 45.59
54.57 54.41 54.04 53.69 53.59 52.97 52.89 54.36 55.66 55.11 55.74 56.95 57.20 48.87 52.10 50.14 52.57 53.43 52.31 52.82 51.27 51.94 51.54 50.19 46.44 42.08 40.40 37.23 31.01 34.69 35.33 38.14 36.35 41.85 42.34 39.63 40.02 43.00 44.06 43.27 43.16 42.64 42.68 43.32 45.17
54.47 54.43 54.02 53.63 53.63 53.48 54.83 55.79 52.95 48.92 51.65 46.33 47.60 48.58 49.44 52.29 53.81 51.09 51.80 51.40 50.60 49.52 43.54 45.31 40.46 36.31 38.13 40.03 41.56 39.39 37.50 36.24 39.23 42.96 41.94 39.23 39.40 42.65 42.48 39.97 41.12 41.31 42.41 43.60 45.43
54.08 54.16 53.89 53.36 53.46 53.62 56.20 53.01 53.28 53.64 46.91 51.19 50.34 50.03 51.88 51.42 48.14 49.65 50.91 46.83 46.55 41.45 43.47 42.64 37.98 42.41 44.21 43.66 41.40 40.18 38.43 37.17 40.51 43.57 41.77 40.80 39.73 40.11 41.59 40.80 42.19 42.56 42.16 43.25 44.06
53.68 53.98 53.78 52.70 52.89 55.31 54.02 53.40 59.42 58.12 48.49 48.18 50.68 49.69 49.92 50.98 47.29 47.39 48.30 46.59 44.40 42.77 40.91 39.44 42.25 45.48 43.55 41.89 40.47 38.24 37.93 37.44 38.27 41.04 41.46 40.50 38.42 39.43 42.16 43.17 43.90 43.46 43.35 44.01 44.29
53.47 53.72 53.25 53.24 53.18 54.89 52.85 56.28 57.69 58.02 41.51 44.29 47.80 49.59 50.88 50.00 47.17 50.44 49.49 47.46 45.40 41.73 41.21 41.79 44.49 42.44 42.11 40.94 40.42 36.27 41.90 41.60 39.98 37.39 32.80 39.99 31.04 37.45 39.41 40.51 42.44 43.01 42.44 43.12 44.61
53.07 53.45 53.25 54.80 54.86 52.69 54.83 57.52 58.83 55.35 28.27 47.00 47.07 51.00 49.74 47.00 46.74 47.98 49.32 47.95 41.99 41.79 41.65 40.95 39.91 39.56 40.18 40.32 41.96 39.50 42.88 41.69 40.86 36.63 34.72 37.00 32.47 36.21 39.76 39.25 40.32 41.75 42.92 42.72 43.35
52.87 52.95 53.40 56.54 53.61 53.91 57.36 58.39 56.13 41.58 30.01 43.90 47.84 46.73 46.61 47.45 46.99 47.95 48.56 49.79 47.97 44.89 43.47 41.41 43.52 42.28 41.15 43.73 44.03 44.68 42.25 40.57 39.80 36.77 29.26 35.68 33.69 33.05 37.13 39.23 41.21 42.84 43.81 44.27 43.01
52.46 52.41 56.31 58.45 52.61 56.80 58.19 53.28 40.98 32.24 47.08 42.52 43.95 46.02 45.42 43.71 45.62 45.26 44.07 42.18 38.89 35.64 36.62 42.15 41.16 42.99 45.01 41.08 43.61 41.13 36.68 28.22 28.01 27.18 27.41 38.02 34.49 34.54 39.89 42.76 43.37 43.05 42.44 43.30 44.55
51.86 52.39 56.79 58.64 57.82 57.41 54.45 45.94 34.87 41.28 42.52 46.21 45.06 44.90 42.40 43.07 43.53 44.23 42.48 39.20 42.73 40.93 37.54 35.96 33.49 42.20 44.99 41.68 38.85 39.14 37.55 27.92 24.02 25.25 28.28 36.56 30.82 36.44 43.74 45.03 45.57 44.81 44.17 45.38 44.80
52.40 55.45 54.07 55.53 58.22 57.85 49.66 35.87 34.29 41.53 44.64 43.56 44.69 41.06 41.28 44.11 41.98 42.75 40.23 39.98 41.53 42.35 36.32 35.26 36.54 44.33 45.36 44.72 42.92 39.92 34.69 39.91 31.92 29.72 26.58 31.16 36.39 41.37 42.99 44.28 46.26 45.40 45.46 44.52 45.16
52.70 54.14 51.35 56.53 56.86 54.38 42.04 37.94 41.45 45.77 45.97 46.13 40.44 42.07 38.31 41.07 40.94 40.97 39.89 43.20 42.79 44.37 43.61 40.80 34.67 42.72 44.78 45.56 44.11 40.99 42.43 33.11 30.39 21.25 25.60 30.33 31.15 33.50 39.55 42.08 44.56 44.44 42.48 43.05 43.90
56.41 48.84 52.02 56.98 56.23 47.37 36.25 37.38 43.27 46.51 47.26 44.67 42.67 41.85 41.96 40.85 41.73 40.34 40.30 43.16 44.70 44.02 44.73 41.43 37.39 37.77 41.20 40.67 38.34 38.22 36.36 37.54 38.01 31.69 25.77 25.64 29.58 38.98 41.58 42.75 41.90 43.01 43.17 42.22 42.91
52.43 42.46 51.28 56.26 46.21 43.29 38.34 44.15 44.66 46.17 48.27 46.72 45.80 44.20 42.24 42.38 40.93 41.20 40.82 42.87 45.63 44.78 40.94 42.06 36.33 29.83 36.45 42.35 43.72 40.81 38.70 37.83 27.65 30.48 29.32 30.70 31.56 43.62 42.09 43.66 43.27 42.21 43.56 43.92 43.37
48.60 47.83 54.44 53.54 36.40 34.26 43.59 45.87 46.81 46.25 45.75 46.00 44.22 45.51 45.23 41.90 37.40 41.85 42.90 45.98 44.99 44.20 40.88 41.07 33.19 27.02 31.56 36.50 40.70 38.61 39.96 39.30 37.14 30.67 29.09 23.36 27.61 42.55 43.87 43.40 42.93 41.36 43.05 43.27 43.71
47.07 39.03 46.51 48.39 47.17 42.71 42.24 43.17 43.34 47.43 46.38 47.03 45.50 46.17 43.61 41.26 43.21 38.93 41.87 45.68 45.98 45.26 45.36 43.44 36.93 32.06 27.44 31.71 37.33 35.40 38.25 38.61 35.49 25.47 30.27 31.76 33.78 38.63 40.37 41.00 42.28 42.05 42.62 42.52 43.57
46.62 41.72 44.69 37.24 41.56 42.87 44.35 45.32 43.53 43.10 46.60 46.52 44.55 44.13 42.23 35.39 37.31 39.35 42.46 43.00 45.04 44.87 43.48 40.90 32.15 35.52 36.92 38.39 38.55 38.49 37.92 38.14 35.56 34.90 29.56 33.65 33.97 37.64 39.35 40.13 41.58 42.74 43.52 43.47 43.47
45.40 45.17 45.41 41.58 45.57 43.08 40.74 42.33 43.56 43.88 44.76 43.44 42.57 43.92 43.17 38.98 39.98 37.07 40.89 39.80 39.91 42.54 39.83 41.41 31.80 32.48 33.53 37.62 37.88 35.65 37.80 37.16 36.62 36.50 35.55 35.19 34.58 40.89 41.98 42.48 42.15 42.89 43.29 43.04 42.54
49.70 49.07 45.68 39.22 39.13 36.81 37.66 43.02 43.85 45.68 45.21 46.25 44.78 41.95 36.29 42.89 44.86 45.04 45.19 44.30 43.44 40.67 36.41 36.14 31.36 28.92 30.91 33.71 33.04 30.22 33.17 34.62 35.90 37.53 35.78 30.72 35.60 40.56 40.45 41.66 42.03 42.60 42.96 42.67 43.04

GFSSW_sfc_wetblb_015.txt.gz
Wetbulb
56.11 55.91 55.43 55.31 55.08 56.03 55.65 55.93 55.85 55.84 55.74 56.36 56.70 57.06 57.62 57.95 56.52 54.99 45.30 51.43 52.23 60.44 59.14 51.75 50.59 49.74 47.12 44.45 41.91 39.65 34.86 32.17 32.68 34.69 37.72 40.56 39.16 42.01 42.75 48.27 46.50 52.61 50.32 52.72 59.64
55.73 56.07 56.14 56.29 56.19 55.67 55.42 55.96 55.81 55.73 55.80 56.25 56.63 57.13 57.46 57.04 54.97 48.55 56.39 59.94 60.83 60.82 51.44 50.59 49.62 49.40 43.46 42.53 42.04 38.29 34.29 36.06 39.18 38.74 36.36 40.04 40.85 40.47 42.71 46.42 50.33 50.69 55.62 56.54 61.04
56.09 56.07 55.89 55.43 55.21 55.75 55.78 56.05 55.69 55.64 55.90 56.50 56.76 57.21 57.02 55.81 48.78 48.71 59.59 60.77 61.68 60.00 52.06 51.70 50.79 48.33 44.13 43.49 41.59 38.34 37.60 40.70 42.30 41.43 41.52 40.77 41.56 42.86 41.49 41.83 50.55 49.47 53.21 57.75 58.78
55.70 55.82 55.81 55.94 55.21 55.74 56.25 55.85 55.75 55.84 56.14 56.76 56.77 57.49 57.02 53.90 39.66 50.30 61.46 62.15 62.24 57.84 52.70 50.47 49.51 45.85 42.96 42.47 42.82 40.07 42.44 43.06 41.83 44.46 42.61 40.75 44.22 42.59 43.14 43.21 52.42 52.79 55.54 57.60 57.92
55.08 55.37 55.37 55.78 56.11 56.54 56.09 55.57 55.77 55.97 56.20 56.37 56.99 57.81 53.24 47.90 48.40 54.85 60.97 58.85 53.66 52.38 50.06 49.18 47.79 45.58 43.27 43.32 43.93 42.04 42.70 44.61 45.00 44.79 43.06 44.87 42.63 42.34 43.01 44.66 47.05 55.01 56.78 56.89 56.81
55.00 55.00 55.14 55.41 55.67 55.89 55.79 55.32 55.18 55.49 55.85 56.33 57.26 57.33 51.94 44.25 54.06 54.52 54.00 55.03 53.22 52.01 50.10 49.62 47.53 47.64 46.09 44.94 42.93 44.95 44.62 44.94 44.59 44.30 44.13 42.89 42.44 41.72 44.12 43.84 45.83 53.41 54.15 54.82 54.77
55.00 54.78 54.74 55.15 55.31 55.47 55.47 55.37 55.04 55.22 55.58 56.42 57.43 56.89 51.15 48.40 52.63 53.05 54.21 52.69 52.30 52.71 49.60 49.89 49.58 48.00 46.78 45.19 47.66 45.42 42.19 43.97 43.75 43.31 42.42 42.44 39.35 39.80 42.26 43.42 45.05 49.23 53.55 51.86 52.32
55.00 54.59 54.27 54.31 54.47 54.47 54.66 54.63 54.76 55.21 55.71 56.47 56.96 55.47 46.23 55.02 53.06 53.55 53.37 53.06 53.85 53.88 52.72 51.73 51.28 48.22 46.33 47.26 45.64 41.81 39.89 36.46 42.91 42.84 42.70 40.41 36.32 42.19 42.43 42.26 43.62 44.53 46.11 47.23 48.73
54.49 54.27 53.94 53.75 53.77 54.08 54.06 54.14 54.55 55.60 56.45 56.24 54.89 51.67 47.13 56.48 52.05 52.54 51.37 50.26 51.45 53.06 52.69 54.19 50.69 45.39 44.23 38.48 36.22 37.20 32.23 34.40 39.37 42.78 42.41 39.42 37.65 42.62 42.38 42.94 42.69 42.59 43.36 45.09 45.05
54.47 54.15 53.84 53.69 53.36 53.01 52.94 53.98 55.29 55.19 55.54 56.32 55.63 46.90 50.48 48.55 51.22 51.12 50.57 51.27 49.77 50.36 49.90 48.79 43.78 40.25 38.56 36.71 29.96 32.51 32.90 36.15 34.91 40.73 41.47 38.56 38.71 41.76 43.20 41.90 41.89 40.89 40.35 41.33 42.88
54.33 54.18 53.78 53.40 53.28 53.12 53.69 53.20 51.41 48.06 51.49 44.93 45.76 46.79 47.73 50.96 52.01 50.10 50.02 49.92 49.15 46.79 41.75 43.71 39.42 35.29 35.78 38.18 39.50 37.56 36.00 34.63 37.17 40.81 40.94 37.99 38.33 41.43 40.48 39.33 39.44 38.76 39.57 42.23 43.43
53.96 54.06 53.73 53.30 53.14 53.98 54.60 52.23 51.70 51.78 44.18 50.56 48.65 48.39 50.18 49.96 46.39 48.73 49.90 45.97 45.27 40.16 41.61 41.25 36.68 40.48 42.36 42.09 40.08 38.87 36.33 35.05 39.20 41.69 39.99 39.12 38.54 39.01 40.38 39.73 39.88 40.87 41.41 42.71 43.36
53.62 53.96 53.82 53.07 52.94 54.56 53.55 54.39 58.61 55.96 44.37 46.88 48.83 47.82 48.48 49.39 45.53 46.32 47.32 45.25 43.16 40.65 40.23 38.10 40.57 43.37 42.21 39.95 38.67 36.42 36.00 35.53 36.85 39.48 39.38 38.19 36.87 38.03 40.94 42.13 42.76 42.60 41.69 42.73 43.31
53.38 53.68 53.01 54.02 54.70 53.16 51.72 54.47 56.69 54.60 38.34 42.91 46.44 48.20 49.20 48.23 45.45 48.58 48.40 46.06 43.69 39.40 39.53 39.95 42.11 40.88 40.33 39.07 38.55 34.58 39.72 39.21 38.37 36.20 32.09 37.60 30.10 36.07 38.00 39.06 40.60 40.70 40.39 40.02 42.74
53.05 53.21 53.06 56.06 53.55 51.57 54.30 56.57 57.34 52.52 26.44 45.02 45.22 49.81 47.89 45.81 45.03 47.22 49.22 46.45 40.67 41.30 40.56 39.34 38.47 38.99 38.72 39.19 40.36 38.62 41.68 39.12 38.71 35.34 33.30 35.57 30.83 35.39 38.03 37.29 38.90 39.56 41.78 41.54 41.81
52.81 53.08 53.49 56.09 52.35 52.17 56.29 55.05 54.64 39.37 28.52 41.86 45.95 44.80 44.88 46.11 45.67 46.95 47.24 48.46 46.67 43.47 42.73 40.65 42.19 40.93 40.00 41.97 42.55 43.44 40.20 38.69 37.43 35.01 28.28 33.34 32.11 31.60 34.87 37.08 39.74 41.50 42.06 42.88 43.13
52.38 53.00 56.08 57.34 49.78 55.56 55.94 51.62 38.95 31.08 44.98 40.63 42.01 44.14 43.59 41.91 43.55 43.97 42.41 41.07 37.69 33.86 35.03 40.72 40.92 42.77 43.57 40.20 42.59 40.27 35.50 27.43 26.80 26.53 26.94 35.52 32.45 33.33 38.75 40.94 41.19 41.66 42.24 44.40 43.68
52.00 53.94 56.12 57.39 56.29 55.78 51.78 44.79 33.24 39.41 40.31 44.54 43.33 43.13 40.69 41.69 41.67 42.42 40.57 37.71 41.25 39.36 36.11 34.04 32.04 40.62 44.10 40.10 37.59 37.39 35.91 26.90 22.39 24.14 27.22 34.97 28.69 34.86 41.89 43.43 43.64 44.93 44.63 43.38 43.00
53.14 55.28 51.97 53.76 56.78 55.49 46.81 34.34 33.38 39.65 42.74 41.64 42.75 39.68 39.59 42.64 41.16 40.69 38.89 38.43 40.09 40.79 35.06 34.00 35.00 42.87 43.69 43.73 41.26 38.32 33.49 37.98 30.32 29.19 26.10 30.35 34.64 39.52 41.31 42.30 43.38 42.70 42.98 41.71 41.97
53.88 50.59 49.78 54.90 55.68 49.18 40.76 36.80 39.74 43.85 44.24 44.39 38.39 40.34 36.49 39.84 39.47 38.93 38.30 41.64 41.08 43.25 41.98 39.07 33.70 40.78 42.90 43.55 42.78 39.92 40.90 32.14 30.00 20.22 24.22 29.33 30.31 32.23 37.71 39.99 42.05 41.75 40.60 41.28 42.31
55.16 44.86 50.17 55.66 53.22 44.65 35.22 35.41 41.42 44.79 45.66 43.15 41.02 40.32 40.26 39.13 39.75 38.20 38.81 41.51 42.84 42.71 43.27 39.44 36.21 36.34 39.26 38.36 36.29 37.26 35.25 35.40 35.54 30.79 25.85 23.33 28.84 37.91 37.80 39.94 39.68 39.85 41.37 40.83 40.40
49.35 40.68 49.81 53.44 44.91 39.62 37.10 42.08 43.76 44.94 47.14 45.33 44.57 42.77 40.79 40.58 39.41 39.26 39.14 41.45 43.99 43.24 39.08 40.36 34.86 29.20 34.84 40.55 41.73 39.54 37.05 35.79 29.86 29.51 28.47 27.11 29.41 40.50 40.20 40.78 40.47 40.62 41.97 42.15 41.83
47.52 46.27 52.40 50.78 36.04 32.74 41.84 44.34 45.14 44.47 44.15 43.97 42.58 43.89 43.81 40.00 36.07 40.09 41.01 44.32 43.91 42.70 39.25 39.56 32.42 26.31 30.44 35.42 38.31 36.73 37.63 37.54 34.77 29.94 30.10 24.52 26.74 39.87 42.41 40.36 41.09 40.85 41.94 43.11 43.27
44.76 38.36 45.86 45.92 44.29 41.15 40.53 41.11 41.93 45.52 44.79 45.25 43.73 44.60 42.13 39.54 41.50 37.85 40.12 44.35 45.21 43.68 44.58 42.85 35.50 30.86 26.83 30.53 35.19 33.52 35.99 36.92 34.51 25.75 28.76 30.35 33.05 37.80 38.44 39.20 40.84 41.22 42.42 42.88 43.41
44.34 39.86 43.69 36.23 40.98 42.18 42.58 43.28 41.63 41.15 44.59 44.96 43.06 42.35 40.48 34.50 36.04 37.47 41.07 41.69 43.23 44.26 42.13 39.36 31.84 33.74 35.14 36.37 36.55 36.60 36.22 37.18 34.57 33.72 30.98 32.89 33.25 36.88 38.09 39.32 40.67 41.85 42.23 43.31 43.92
45.05 43.39 42.66 40.96 43.95 41.00 39.34 40.38 42.56 42.18 43.01 41.60 41.22 42.13 41.73 37.81 38.41 36.17 39.87 38.46 38.69 40.78 38.74 39.70 30.81 32.41 30.93 35.99 36.57 34.54 36.68 36.04 35.94 35.68 34.50 33.98 32.87 38.04 40.76 41.16 40.95 41.55 42.72 42.17 42.15
47.54 46.45 43.76 37.50 37.19 35.98 36.39 41.18 42.46 44.16 43.89 44.92 43.73 40.50 34.97 41.49 44.19 43.63 43.88 43.03 41.76 39.36 35.91 35.50 30.87 30.57 25.65 32.64 31.19 25.76 31.49 34.16 34.89 35.76 34.68 29.73 34.00 38.95 39.46 40.18 41.33 41.84 42.13 41.76 41.84